Capitol Logistics 364


KAFW
Fort Worth Alliance Airport
Fort Worth, Texas, US
KRIV
March Air Reserve Base
Riverside, California, US

Route Details

Aircraft Information
Primary: Boeing 767-300BDSF
Backup: Not Available
Route Data
Distance: 1001nm
Sched. Duration: 3h 00m
Avg. Duration: 2h 73m (-26m)
Times Flown: 5
Recm'd Route: SWABR5 DOSXX INK V94 TFD J169 TRM ARKOE1
Planned Altitude: 34,000ft
Origin Wx: KAFW 221953Z 16018G25KT 10SM BKN042 BKN049 29/18 A2987 RMK AO2 PK WND 17026/1937 SLP102 T02940183
Dest. Wx: KRIV 221958Z AUTO 00000KT 10SM CLR 22/13 A2989 RMK AO2 SLP113 T02240134
Notes:

Financial History
Total Freight: 405,389lbs
Average Load: 81,078lbs/flt
Fuel Used: 149,530lbs
Avg. Fuel Used: 29,906lbs/flt
Fuel Expense: $121,119
Avg. Fuel Expense: $24,224
Avg. Fuel Cost: $0.81/lbs
Total Gross Income: $560,312
Pilot Pay: $915
Total Expenses: $60,774
Total Revenue: $375,292
Average Revenue: $112,062.41